Regional Weather Roundup
Issued by NWS

Home | Current Version | Previous Version | Graphics & Text | Print | Product List | Glossary On
Versions: 1 2 3 4 5 6 7 8 9 10 11 12 13 14 15 16 17 18 19 20 21 22 23 24 25 26 27 28 29 30 31 32 33 34 35 36 37 38 39 40 41 42 43 44 45 46 47 48 49 50
000
ASUS43 KLMK 301010
RWRKY
KENTUCKY REGIONAL WEATHER ROUNDUP
NATIONAL WEATHER SERVICE LOUISVILLE KY
600 AM EDT SAT AUG 30 2014

NOTE "FAIR" INDICATES FEW OR NO CLOUDS BELOW 12,000 FEET
WITH NO SIGNIFICANT WEATHER AND/OR OBSTRUCTIONS TO VISIBILITY.

KYZ001>023-026-027-061>063-070>075-301100-
WESTERN AND SOUTH CENTRAL KENTUCKY

CITY           SKY/WX    TMP DP  RH WIND       PRES   REMARKS
PADUCAH        CLOUDY    74  70  87 CALM      29.98F
HENDERSON      CLOUDY    72  66  83 S5        30.00S
OWENSBORO      NOT AVBL
HOPKINSVILLE   MOCLDY    71  67  87 CALM      30.02S
BOWLING GREEN  PTCLDY    70  65  84 CALM      30.04S
GLASGOW        MOCLDY    70  63  77 CALM      30.06S
$$

KYZ024-025-028>034-038-045-046-053-301100-
NORTH CENTRAL KENTUCKY

CITY           SKY/WX    TMP DP  RH WIND       PRES   REMARKS
LOUISVILLE/SDF MOCLDY    73  64  73 SE8       30.03S
LOUISVILLE/LOU CLEAR     72  64  76 CALM      30.04S
FORT KNOX      PTCLDY    68  65  88 S2        30.03S
$$

KYZ035>037-039>044-047>052-055>060-089>105-301100-
NORTHEAST KENTUCKY

CITY           SKY/WX    TMP DP  RH WIND       PRES   REMARKS
LEXINGTON      PTCLDY    72  67  84 S6        30.08R
COVINGTON      PTCLDY    72  66  81 S8        30.05S
FRANKFORT      CLEAR     68  65  90 CALM      30.06R
$$

KYZ054-064>069-076>088-106>120-301100-
SOUTHEAST KENTUCKY

CITY           SKY/WX    TMP DP  RH WIND       PRES   REMARKS
JACKSON        CLEAR     72  67  84 VRB3      30.13S
LONDON         CLEAR     69  65  86 SE5       30.13R
SOMERSET       PTCLDY    70  64  83 S3        30.11S
MIDDLESBORO    CLEAR     65  64  97 CALM      30.16R
MONTICELLO     SUNNY     72  65  78 S7        30.11S
$$




USA.gov is the U.S. government's official web portal to all federal, state and local government web resources and services.